Back to Previous

Regional Weather Roundup

769 
ASUS44 KLZK 230805
RWRLZK

WEATHER ROUNDUP FOR ARKANSAS
NATIONAL WEATHER SERVICE LITTLE ROCK AR
300 AM CDT SAT MAY 23 2015

NOTE: "FAIR" INDICATES FEW OR NO CLOUDS BELOW 12,000 FEET WITH NO
SIGNIFICANT WEATHER AND/OR OBSTRUCTIONS TO VISIBILITY.

ARZ001-003-010-029-230900-
NORTHWEST ARKANSAS
  
CITY           SKY/WX    TMP DP  RH WIND       PRES   REMARKS
FAYETTEVILLE   CLOUDY    59  52  77 E5        30.20F                  
FORT SMITH     CLOUDY    59  56  89 E7        30.19S                  
HARRISON       CLOUDY    57  51  80 SE7       30.24S                  
BENTONVILLE    CLOUDY   N/A N/A N/A SE7       30.20S                  
ROGERS         CLOUDY    58  52  80 SE9       30.21S                  
SILOAM SPGS    CLOUDY    57  48  72 SE3       30.21S                  
HIGHFILL       CLOUDY    58  53  84 SE6       30.20S                  
$$

ARZ004-005-016-230900-
NORTH CENTRAL ARKANSAS
  
CITY           SKY/WX    TMP DP  RH WIND       PRES   REMARKS
BATESVILLE     CLOUDY    59  55  88 CALM      30.24S                  
FLIPPIN        CLOUDY    57  52  82 CALM      30.23S                  
MTN HOME       CLOUDY    57  51  80 E3        30.24S                  
$$

ARZ040-041-230900-
WEST CENTRAL ARKANSAS
  
CITY           SKY/WX    TMP DP  RH WIND       PRES   REMARKS
MENA           CLOUDY    61  59  94 CALM      30.20S                  
MOUNT IDA      CLOUDY    60  58  92 CALM      30.18F                  
$$

ARZ009-017-025-026-028-230900-
NORTHEAST ARKANSAS
  
CITY           SKY/WX    TMP DP  RH WIND       PRES   REMARKS
CORNING          N/A     59  57  94 N3        30.26S                  
JONESBORO      CLOUDY    60  55  83 NE3       30.24R                  
NEWPORT        CLOUDY    62  58  87 NE5       30.25R                  
WALNUT RIDGE   CLOUDY    63  55  77 NE5       30.25R                  
BLYTHEVILLE    CLOUDY    61  57  87 NE3       30.25R                  
$$

ARZ022-023-033-042-044-230900-
CENTRAL ARKANSAS
  
CITY           SKY/WX    TMP DP  RH WIND       PRES   REMARKS
LITTLE ROCK    CLOUDY    63  56  78 N3        30.22R                  
N LITTLE ROCK    N/A     61  58  90 N6        30.22R                  
SEARCY         MOCLDY    62  56  80 N6        30.24R                  
HOT SPRINGS    LGT RAIN  61  57  87 CALM      30.20R                  
RUSSELLVILLE   CLOUDY    62  57  83 CALM      30.21F                  
CLINTON        CLOUDY    57  55  94 CALM      30.25S                  
$$

ARZ036-230900-
EAST ARKANSAS
  
CITY           SKY/WX    TMP DP  RH WIND       PRES   REMARKS
WEST MEMPHIS   CLOUDY    61  55  81 SE3       30.21F                  
$$

ARZ050-053-066-070-073-230900-
SOUTHWEST ARKANSAS
  
CITY           SKY/WX    TMP DP  RH WIND       PRES   REMARKS
ARKADELPHIA    FAIR      62  62 100 N6        30.20R                  
CAMDEN         CLEAR     57  54  88 CALM      30.18R                  
TEXARKANA      CLOUDY    62  57  83 E5        30.16S                  
EL DORADO      PTCLDY    58  56  93 CALM      30.18S                  
DE QUEEN       CLOUDY    61  58  90 E5        30.15S                  
$$

ARZ056-057-069-230900-
SOUTHEAST ARKANSAS
  
CITY           SKY/WX    TMP DP  RH WIND       PRES   REMARKS
PINE BLUFF     PTCLDY    60  56  86 CALM      30.20R                  
STUTTGART      PTCLDY    63  55  77 NE6       30.21R                  
MONTICELLO     CLEAR     60  56  86 NE3       30.18F                  

$$




USA.gov is the U.S. government's official web portal to all federal, state and local government web resources and services.